SL-14 DEB, 45350

Orbit data source: Space-Track

SL-14 DEB, 45350 is space debris in LEO originally from a launch on Thu, 15 Aug 1991 UTC launched from the Plesetsk Missile And Space Complex (PKMTR). Debris objects in space refer to the collection of defunct objects orbiting the Earth. Examples of debris include non-operational satellites, rocket bodies, and fragments generated from explosions, collisions, or faulty payload assembly.

Loading next visibility...
Identifier
45350, 1991-056CJ
Orbit
LEO
Country
Flag of CISCIS
Related business
Manufacturer
Unknown
Mission
Spacecraft
Bus & Motor
Unknown
Mass
Unknown
Launch date (UTC)
1991-08-15 (34 years ago)
Launch vehicle
Unknown
Launch site
Plesetsk Missile And Space Complex (PKMTR)
Object type
Payload
Rocket body
Debris
Shape & HBR
Unknown shape, 0.1 m
Radar Cross Section
Small (<0.1 m²)

Expand to show TLE details & history
Last TLE update: 1 week ago

TLE from 1 week ago
0 SL-14 DEB
1 45350U 91056CJ  25340.51865203  .00000986  00000-0  23326-2 0  9993
2 45350  82.5861 272.0037 0037370  64.3635 296.1343 13.22251921280351
Epoch: 2025-12-06T12:26Z
TLE epoch observation values (Epoch: 2025-12-06T12:26:51.535Z)
Latitude
-0.00008°
Longitude
9.74373°
Altitude
1,166.595 km
Speed
7.276 km/s
True Right ascension
18h 08m 00s
True Declination
0° 00' 00"
Sunlit
Object was in daylight at epoch
Visualization orbit readout
Latitude
Unknown
Longitude
Unknown
Altitude
Unknown
Speed
Unknown
Apparent Right ascension
Unknown
Apparent Declination
Unknown
Sunlit
N/A
Visualization observer readout
Local Sidereal Time
04:47:28
Azimuth
Unknown
Elevation
Unknown
Doppler factor
Unknown
Orbital elements
Apogee altitude
1,201.587 km
Perigee altitude
1,145.147 km
Semi-major axis
7,551.504 km
Eccentricity
0.00374
Inclination
82.5861°
RAAN
272.0037°
Arg. of periapsis
64.3635°
True anomaly
295.74906°
Mean anomaly
296.1343°
Eccentric anomaly
295.94176°
Mean motion
3.30745 °/min
Orbital period
108.85 mins
BSTAR
0.0023326
Loading maneuver chart data...
Computing Atmospheric mass density...
Loading historical data...
Loading historical data...
Loading historical data...
Loading historical data...
Loading historical data...
Loading historical data...
Loading historical data...

Documentation

Showing up to 5 results
|